Year,Month,Day,Hour,Minute,Value (Times are PST for temperature in C)
2020,08,01,00,00,19.00
2020,08,01,00,01,19.00
2020,08,01,00,02,19.00
2020,08,01,00,03,19.00
2020,08,01,00,04,19.10
2020,08,01,00,05,19.10
2020,08,01,00,06,19.10
2020,08,01,00,07,19.00
2020,08,01,00,08,19.10
2020,08,01,00,09,19.10
2020,08,01,00,10,19.10
2020,08,01,00,11,19.10
2020,08,01,00,12,19.10
2020,08,01,00,13,19.10
2020,08,01,00,14,19.10
2020,08,01,00,15,19.10
2020,08,01,00,16,19.10
2020,08,01,00,17,19.10
2020,08,01,00,18,19.10
2020,08,01,00,19,19.10
2020,08,01,00,20,19.10
2020,08,01,00,21,19.10
2020,08,01,00,22,19.10
2020,08,01,00,23,19.10
2020,08,01,00,24,19.10
2020,08,01,00,25,19.10
2020,08,01,00,26,19.10
2020,08,01,00,27,19.10
2020,08,01,00,28,19.10
2020,08,01,00,29,19.10
2020,08,01,00,30,19.10
2020,08,01,00,31,19.10
2020,08,01,00,32,19.10
2020,08,01,00,33,19.10
2020,08,01,00,34,19.10
2020,08,01,00,35,19.10
2020,08,01,00,36,19.10
2020,08,01,00,37,19.10
2020,08,01,00,38,19.10
2020,08,01,00,39,19.10
2020,08,01,00,40,19.20
2020,08,01,00,41,19.20
2020,08,01,00,42,19.20
2020,08,01,00,43,19.20
2020,08,01,00,44,19.20
2020,08,01,00,45,19.20
2020,08,01,00,46,19.20
2020,08,01,00,47,19.20
2020,08,01,00,48,19.20
2020,08,01,00,49,19.20
2020,08,01,00,50,19.20
2020,08,01,00,51,19.20
2020,08,01,00,52,19.20
2020,08,01,00,53,19.20
2020,08,01,00,54,19.20
2020,08,01,00,55,19.20
2020,08,01,00,56,19.20
2020,08,01,00,57,19.20
2020,08,01,00,58,19.20
2020,08,01,00,59,19.20
2020,08,01,01,00,19.20
2020,08,01,01,01,19.20
2020,08,01,01,02,19.20
2020,08,01,01,03,19.20
2020,08,01,01,04,19.20
2020,08,01,01,05,19.20
2020,08,01,01,06,19.20
2020,08,01,01,07,19.20
2020,08,01,01,08,19.20
2020,08,01,01,09,19.10
2020,08,01,01,10,19.10
2020,08,01,01,11,19.10
2020,08,01,01,12,19.10
2020,08,01,01,13,19.10
2020,08,01,01,14,19.10
2020,08,01,01,15,19.10
2020,08,01,01,16,19.10
2020,08,01,01,17,19.10
2020,08,01,01,18,19.00
2020,08,01,01,19,19.00
2020,08,01,01,20,19.00
2020,08,01,01,21,19.00
2020,08,01,01,22,19.00
2020,08,01,01,23,19.00
2020,08,01,01,24,19.00
2020,08,01,01,25,19.00
2020,08,01,01,26,19.00
2020,08,01,01,27,19.00
2020,08,01,01,28,19.00
2020,08,01,01,29,19.00
2020,08,01,01,30,19.00
2020,08,01,01,31,19.00
2020,08,01,01,32,19.00
2020,08,01,01,33,19.00
2020,08,01,01,34,18.90
2020,08,01,01,35,18.90
2020,08,01,01,36,18.90
2020,08,01,01,37,18.80
2020,08,01,01,38,18.80
2020,08,01,01,39,18.80
2020,08,01,01,40,18.70
2020,08,01,01,41,18.70
2020,08,01,01,42,18.70
2020,08,01,01,43,18.60
2020,08,01,01,44,18.60
2020,08,01,01,45,18.60
2020,08,01,01,46,18.50
2020,08,01,01,47,18.50
2020,08,01,01,48,18.50
2020,08,01,01,49,18.50
2020,08,01,01,50,18.50
2020,08,01,01,51,18.40
2020,08,01,01,52,18.40
2020,08,01,01,53,18.40
2020,08,01,01,54,18.30
2020,08,01,01,55,18.30
2020,08,01,01,56,18.30
2020,08,01,01,57,18.30
2020,08,01,01,58,18.30
2020,08,01,01,59,18.10
2020,08,01,02,00,18.00
2020,08,01,02,01,17.80
2020,08,01,02,02,17.70
2020,08,01,02,03,17.70
2020,08,01,02,04,17.60
2020,08,01,02,05,17.50
2020,08,01,02,06,17.50
2020,08,01,02,07,17.40
2020,08,01,02,08,17.40
2020,08,01,02,09,17.30
2020,08,01,02,10,17.20
2020,08,01,02,11,17.20
2020,08,01,02,12,17.10
2020,08,01,02,13,17.00
2020,08,01,02,14,17.00
2020,08,01,02,15,16.80
2020,08,01,02,16,16.70
2020,08,01,02,17,16.60
2020,08,01,02,18,16.60
2020,08,01,02,19,16.50
2020,08,01,02,20,16.40
2020,08,01,02,21,16.30
2020,08,01,02,22,16.20
2020,08,01,02,23,16.00
2020,08,01,02,24,16.00
2020,08,01,02,25,15.80
2020,08,01,02,26,15.80
2020,08,01,02,27,15.70
2020,08,01,02,28,15.70
2020,08,01,02,29,15.60
2020,08,01,02,30,15.50
2020,08,01,02,31,15.50
2020,08,01,02,32,15.40
2020,08,01,02,33,15.40
2020,08,01,02,34,15.30
2020,08,01,02,35,15.30
2020,08,01,02,36,15.20
2020,08,01,02,37,15.20
2020,08,01,02,38,15.10
2020,08,01,02,39,15.00
2020,08,01,02,40,15.00
2020,08,01,02,41,15.00
2020,08,01,02,42,14.90
2020,08,01,02,43,14.90
2020,08,01,02,44,14.80
2020,08,01,02,45,14.80
2020,08,01,02,46,14.70
2020,08,01,02,47,14.70
2020,08,01,02,48,14.60
2020,08,01,02,49,14.60
2020,08,01,02,50,14.60
2020,08,01,02,51,14.60
2020,08,01,02,52,14.50
2020,08,01,02,53,14.40
2020,08,01,02,54,14.40
2020,08,01,02,55,14.30
2020,08,01,02,56,14.30
2020,08,01,02,57,14.30
2020,08,01,02,58,14.30
2020,08,01,02,59,14.20
2020,08,01,03,00,14.20
2020,08,01,03,01,14.20
2020,08,01,03,02,14.20
2020,08,01,03,03,14.20
2020,08,01,03,04,14.10
2020,08,01,03,05,14.10
2020,08,01,03,06,14.10
2020,08,01,03,07,14.10
2020,08,01,03,08,14.00
2020,08,01,03,09,14.00
2020,08,01,03,10,14.00
2020,08,01,03,11,13.90
2020,08,01,03,12,13.90
2020,08,01,03,13,13.90
2020,08,01,03,14,13.80
2020,08,01,03,15,13.80
2020,08,01,03,16,13.80
2020,08,01,03,17,13.80
2020,08,01,03,18,13.80
2020,08,01,03,19,13.80
2020,08,01,03,20,13.80
2020,08,01,03,21,13.80
2020,08,01,03,22,13.70
2020,08,01,03,23,13.70
2020,08,01,03,24,13.70
2020,08,01,03,25,13.70
2020,08,01,03,26,13.70
2020,08,01,03,27,13.60
2020,08,01,03,28,13.60
2020,08,01,03,29,13.60
2020,08,01,03,30,13.60
2020,08,01,03,31,13.60
2020,08,01,03,32,13.50
2020,08,01,03,33,13.50
2020,08,01,03,34,13.50
2020,08,01,03,35,13.50
2020,08,01,03,36,13.40
2020,08,01,03,37,13.40
2020,08,01,03,38,13.40
2020,08,01,03,39,13.30
2020,08,01,03,40,13.30
2020,08,01,03,41,13.30
2020,08,01,03,42,13.30
2020,08,01,03,43,13.20
2020,08,01,03,44,13.20
2020,08,01,03,45,13.20
2020,08,01,03,46,13.20
2020,08,01,03,47,13.20
2020,08,01,03,48,13.20
2020,08,01,03,49,13.20
2020,08,01,03,50,13.10
2020,08,01,03,51,13.10
2020,08,01,03,52,13.10
2020,08,01,03,53,13.10
2020,08,01,03,54,13.10
2020,08,01,03,55,13.10
2020,08,01,03,56,13.10
2020,08,01,03,57,13.10
2020,08,01,03,58,13.00
2020,08,01,03,59,13.00
2020,08,01,04,00,13.00
2020,08,01,04,01,13.00
2020,08,01,04,02,13.00
2020,08,01,04,03,13.00
2020,08,01,04,04,13.00
2020,08,01,04,05,13.00
2020,08,01,04,06,12.90
2020,08,01,04,07,12.90
2020,08,01,04,08,12.90
2020,08,01,04,09,12.90
2020,08,01,04,10,12.90
2020,08,01,04,11,12.90
2020,08,01,04,12,12.90
2020,08,01,04,13,12.90
2020,08,01,04,14,12.80
2020,08,01,04,15,12.80
2020,08,01,04,16,12.80
2020,08,01,04,17,12.80
2020,08,01,04,18,12.80
2020,08,01,04,19,12.80
2020,08,01,04,20,12.80
2020,08,01,04,21,12.80
2020,08,01,04,22,12.80
2020,08,01,04,23,12.80
2020,08,01,04,24,12.80
2020,08,01,04,25,12.70
2020,08,01,04,26,12.70
2020,08,01,04,27,12.70
2020,08,01,04,28,12.70
2020,08,01,04,29,12.70
2020,08,01,04,30,12.70
2020,08,01,04,31,12.70
2020,08,01,04,32,12.70
2020,08,01,04,33,12.70
2020,08,01,04,34,12.70
2020,08,01,04,35,12.70
2020,08,01,04,36,12.70
2020,08,01,04,37,12.70
2020,08,01,04,38,12.70
2020,08,01,04,39,12.80
2020,08,01,04,40,12.80
2020,08,01,04,41,12.80
2020,08,01,04,42,12.80
2020,08,01,04,43,12.80
2020,08,01,04,44,12.80
2020,08,01,04,45,12.70
2020,08,01,04,46,12.70
2020,08,01,04,47,12.70
2020,08,01,04,48,12.70
2020,08,01,04,49,12.70
2020,08,01,04,50,12.70
2020,08,01,04,51,12.70
2020,08,01,04,52,12.70
2020,08,01,04,53,12.70
2020,08,01,04,54,12.70
2020,08,01,04,55,12.60
2020,08,01,04,56,12.60
2020,08,01,04,57,12.60
2020,08,01,04,58,12.60
2020,08,01,04,59,12.60
2020,08,01,05,00,12.60
2020,08,01,05,01,12.60
2020,08,01,05,02,12.60
2020,08,01,05,03,12.60
2020,08,01,05,04,12.60
2020,08,01,05,05,12.60
2020,08,01,05,06,12.60
2020,08,01,05,07,12.50
2020,08,01,05,08,12.50
2020,08,01,05,09,12.50
2020,08,01,05,10,12.50
2020,08,01,05,11,12.40
2020,08,01,05,12,12.40
2020,08,01,05,13,12.40
2020,08,01,05,14,12.40
2020,08,01,05,15,12.40
2020,08,01,05,16,12.40
2020,08,01,05,17,12.40
2020,08,01,05,18,12.40
2020,08,01,05,19,12.40
2020,08,01,05,20,12.40
2020,08,01,05,21,12.40
2020,08,01,05,22,12.50
2020,08,01,05,23,12.50
2020,08,01,05,24,12.60
2020,08,01,05,25,12.60
2020,08,01,05,26,12.60
2020,08,01,05,27,12.60
2020,08,01,05,28,12.60
2020,08,01,05,29,12.60
2020,08,01,05,30,12.60
2020,08,01,05,31,12.60
2020,08,01,05,32,12.70
2020,08,01,05,33,12.70
2020,08,01,05,34,12.70
2020,08,01,05,35,12.70
2020,08,01,05,36,12.60
2020,08,01,05,37,12.60
2020,08,01,05,38,12.60
2020,08,01,05,39,12.60
2020,08,01,05,40,12.60
2020,08,01,05,41,12.60
2020,08,01,05,42,12.50
2020,08,01,05,43,12.50
2020,08,01,05,44,12.50
2020,08,01,05,45,12.40
2020,08,01,05,46,12.40
2020,08,01,05,47,12.40
2020,08,01,05,48,12.40
2020,08,01,05,49,12.40
2020,08,01,05,50,12.40
2020,08,01,05,51,12.40
2020,08,01,05,52,12.30
2020,08,01,05,53,12.30
2020,08,01,05,54,12.30
2020,08,01,05,55,12.30
2020,08,01,05,56,12.30
2020,08,01,05,57,12.30
2020,08,01,05,58,12.30
2020,08,01,05,59,12.30
2020,08,01,06,00,12.30
2020,08,01,06,01,12.30
2020,08,01,06,02,12.30
2020,08,01,06,03,12.30
2020,08,01,06,04,12.30
2020,08,01,06,05,12.30
2020,08,01,06,06,12.30
2020,08,01,06,07,12.30
2020,08,01,06,08,12.30
2020,08,01,06,09,12.30
2020,08,01,06,10,12.30
2020,08,01,06,11,12.30
2020,08,01,06,12,12.30
2020,08,01,06,13,12.30
2020,08,01,06,14,12.30
2020,08,01,06,15,12.30
2020,08,01,06,16,12.30
2020,08,01,06,17,12.40
2020,08,01,06,18,12.40
2020,08,01,06,19,12.40
2020,08,01,06,20,12.40
2020,08,01,06,21,12.40
2020,08,01,06,22,12.40
2020,08,01,06,23,12.40
2020,08,01,06,24,12.40
2020,08,01,06,25,12.40
2020,08,01,06,26,12.50
2020,08,01,06,27,12.50
2020,08,01,06,28,12.50
2020,08,01,06,29,12.50
2020,08,01,06,30,12.50
2020,08,01,06,31,12.50
2020,08,01,06,32,12.50
2020,08,01,06,33,12.50
2020,08,01,06,34,12.60
2020,08,01,06,35,12.60
2020,08,01,06,36,12.60
2020,08,01,06,37,12.60
2020,08,01,06,38,12.60
2020,08,01,06,39,12.60
2020,08,01,06,40,12.60
2020,08,01,06,41,12.60
2020,08,01,06,42,12.60
2020,08,01,06,43,12.60
2020,08,01,06,44,12.60
2020,08,01,06,45,12.60
2020,08,01,06,46,12.60
2020,08,01,06,47,12.60
2020,08,01,06,48,12.60
2020,08,01,06,49,12.70
2020,08,01,06,50,12.70
2020,08,01,06,51,12.70
2020,08,01,06,52,12.70
2020,08,01,06,53,12.70
2020,08,01,06,54,12.70
2020,08,01,06,55,12.70
2020,08,01,06,56,12.70
2020,08,01,06,57,12.80
2020,08,01,06,58,12.80
2020,08,01,06,59,12.80
2020,08,01,07,00,12.90
2020,08,01,07,01,12.90
2020,08,01,07,02,12.90
2020,08,01,07,03,13.00
2020,08,01,07,04,13.00
2020,08,01,07,05,13.00
2020,08,01,07,06,13.10
2020,08,01,07,07,13.20
2020,08,01,07,08,13.20
2020,08,01,07,09,13.30
2020,08,01,07,10,13.30
2020,08,01,07,11,13.40
2020,08,01,07,12,13.50
2020,08,01,07,13,13.70
2020,08,01,07,14,13.70
2020,08,01,07,15,13.80
2020,08,01,07,16,13.90
2020,08,01,07,17,13.90
2020,08,01,07,18,14.00
2020,08,01,07,19,14.10
2020,08,01,07,20,14.20
2020,08,01,07,21,14.20
2020,08,01,07,22,14.20
2020,08,01,07,23,14.30
2020,08,01,07,24,14.30
2020,08,01,07,25,14.30
2020,08,01,07,26,14.40
2020,08,01,07,27,14.40
2020,08,01,07,28,14.40
2020,08,01,07,29,14.40
2020,08,01,07,30,14.40
2020,08,01,07,31,14.40
2020,08,01,07,32,14.40
2020,08,01,07,33,14.30
2020,08,01,07,34,14.30
2020,08,01,07,35,14.30
2020,08,01,07,36,14.30
2020,08,01,07,37,14.30
2020,08,01,07,38,14.30
2020,08,01,07,39,14.30
2020,08,01,07,40,14.30
2020,08,01,07,41,14.30
2020,08,01,07,42,14.30
2020,08,01,07,43,14.40
2020,08,01,07,44,14.40
2020,08,01,07,45,14.40
2020,08,01,07,46,14.50
2020,08,01,07,47,14.60
2020,08,01,07,48,14.60
2020,08,01,07,49,14.70
2020,08,01,07,50,14.70
2020,08,01,07,51,14.80
2020,08,01,07,52,14.90
2020,08,01,07,53,15.00
2020,08,01,07,54,15.10
2020,08,01,07,55,15.20
2020,08,01,07,56,15.20
2020,08,01,07,57,15.30
2020,08,01,07,58,15.40
2020,08,01,07,59,15.50
2020,08,01,08,00,15.50
2020,08,01,08,01,15.50
2020,08,01,08,02,15.60
2020,08,01,08,03,15.60
2020,08,01,08,04,15.60
2020,08,01,08,05,15.50
2020,08,01,08,06,15.40
2020,08,01,08,07,15.40
2020,08,01,08,08,15.40
2020,08,01,08,09,15.40
2020,08,01,08,10,15.40
2020,08,01,08,11,15.40
2020,08,01,08,12,15.30
2020,08,01,08,13,15.30
2020,08,01,08,14,15.40
2020,08,01,08,15,15.40
2020,08,01,08,16,15.40
2020,08,01,08,17,15.40
2020,08,01,08,18,15.40
2020,08,01,08,19,15.40
2020,08,01,08,20,15.40
2020,08,01,08,21,15.40
2020,08,01,08,22,15.50
2020,08,01,08,23,15.50
2020,08,01,08,24,15.50
2020,08,01,08,25,15.60
2020,08,01,08,26,15.60
2020,08,01,08,27,15.60
2020,08,01,08,28,15.60
2020,08,01,08,29,15.60
2020,08,01,08,30,15.60
2020,08,01,08,31,15.60
2020,08,01,08,32,15.70
2020,08,01,08,33,15.70
2020,08,01,08,34,15.80
2020,08,01,08,35,15.90
2020,08,01,08,36,15.90
2020,08,01,08,37,16.00
2020,08,01,08,38,16.00
2020,08,01,08,39,16.00
2020,08,01,08,40,16.00
2020,08,01,08,41,16.00
2020,08,01,08,42,15.90
2020,08,01,08,43,15.80
2020,08,01,08,44,15.80
2020,08,01,08,45,15.70
2020,08,01,08,46,15.80
2020,08,01,08,47,15.90
2020,08,01,08,48,15.90
2020,08,01,08,49,15.80
2020,08,01,08,50,15.90
2020,08,01,08,51,15.90
2020,08,01,08,52,15.90
2020,08,01,08,53,15.80
2020,08,01,08,54,15.70
2020,08,01,08,55,15.70
2020,08,01,08,56,15.70
2020,08,01,08,57,15.60
2020,08,01,08,58,15.60
2020,08,01,08,59,15.50
2020,08,01,09,00,15.40
2020,08,01,09,01,15.40
2020,08,01,09,02,15.40
2020,08,01,09,03,15.50
2020,08,01,09,04,15.60
2020,08,01,09,05,15.70
2020,08,01,09,06,15.80
2020,08,01,09,07,15.80
2020,08,01,09,08,15.70
2020,08,01,09,09,15.70
2020,08,01,09,10,15.60
2020,08,01,09,11,15.60
2020,08,01,09,12,15.50
2020,08,01,09,13,15.50
2020,08,01,09,14,15.50
2020,08,01,09,15,15.50
2020,08,01,09,16,15.50
2020,08,01,09,17,15.60
2020,08,01,09,18,15.70
2020,08,01,09,19,15.70
2020,08,01,09,20,15.70
2020,08,01,09,21,15.70
2020,08,01,09,22,15.70
2020,08,01,09,23,15.70
2020,08,01,09,24,15.70
2020,08,01,09,25,15.70
2020,08,01,09,26,15.70
2020,08,01,09,27,15.80
2020,08,01,09,28,15.90
2020,08,01,09,29,16.00
2020,08,01,09,30,16.20
2020,08,01,09,31,16.30
2020,08,01,09,32,16.40
2020,08,01,09,33,16.40
2020,08,01,09,34,16.40
2020,08,01,09,35,16.30
2020,08,01,09,36,16.20
2020,08,01,09,37,16.10
2020,08,01,09,38,16.00
2020,08,01,09,39,16.00
2020,08,01,09,40,16.00
2020,08,01,09,41,15.90
2020,08,01,09,42,15.90
2020,08,01,09,43,15.90
2020,08,01,09,44,15.80
2020,08,01,09,45,15.80
2020,08,01,09,46,15.80
2020,08,01,09,47,15.80
2020,08,01,09,48,15.80
2020,08,01,09,49,15.70
2020,08,01,09,50,15.70
2020,08,01,09,51,15.70
2020,08,01,09,52,15.70
2020,08,01,09,53,15.70
2020,08,01,09,54,15.70
2020,08,01,09,55,15.60
2020,08,01,09,56,15.60
2020,08,01,09,57,15.50
2020,08,01,09,58,15.40
2020,08,01,09,59,15.30
2020,08,01,10,00,15.30
2020,08,01,10,01,15.20
2020,08,01,10,02,15.30
2020,08,01,10,03,15.30
2020,08,01,10,04,15.40
2020,08,01,10,05,15.50
2020,08,01,10,06,15.60
2020,08,01,10,07,15.80
2020,08,01,10,08,16.00
2020,08,01,10,09,16.10
2020,08,01,10,10,16.20
2020,08,01,10,11,16.30
2020,08,01,10,12,16.30
2020,08,01,10,13,16.50
2020,08,01,10,14,16.60
2020,08,01,10,15,16.70
2020,08,01,10,16,16.60
2020,08,01,10,17,16.60
2020,08,01,10,18,16.70
2020,08,01,10,19,16.80
2020,08,01,10,20,16.80
2020,08,01,10,21,16.80
2020,08,01,10,22,16.80
2020,08,01,10,23,16.80
2020,08,01,10,24,16.80
2020,08,01,10,25,16.70
2020,08,01,10,26,16.70
2020,08,01,10,27,16.70
2020,08,01,10,28,16.60
2020,08,01,10,29,16.50
2020,08,01,10,30,16.40
2020,08,01,10,31,16.40
2020,08,01,10,32,16.40
2020,08,01,10,33,16.40
2020,08,01,10,34,16.30
2020,08,01,10,35,16.20
2020,08,01,10,36,16.20
2020,08,01,10,37,16.10
2020,08,01,10,38,16.10
2020,08,01,10,39,16.10
2020,08,01,10,40,16.10
2020,08,01,10,41,16.20
2020,08,01,10,42,16.20
2020,08,01,10,43,16.20
2020,08,01,10,44,16.20
2020,08,01,10,45,16.20
2020,08,01,10,46,16.10
2020,08,01,10,47,16.00
2020,08,01,10,48,15.90
2020,08,01,10,49,15.90
2020,08,01,10,50,16.00
2020,08,01,10,51,16.10
2020,08,01,10,52,16.20
2020,08,01,10,53,16.30
2020,08,01,10,54,16.40
2020,08,01,10,55,16.60
2020,08,01,10,56,16.80
2020,08,01,10,57,17.00
2020,08,01,10,58,17.20
2020,08,01,10,59,17.40
2020,08,01,11,00,17.60
2020,08,01,11,01,17.70
2020,08,01,11,02,17.90
2020,08,01,11,03,17.90
2020,08,01,11,04,18.00
2020,08,01,11,05,18.00
2020,08,01,11,06,18.10
2020,08,01,11,07,18.20
2020,08,01,11,08,18.20
2020,08,01,11,09,18.20
2020,08,01,11,10,18.20
2020,08,01,11,11,18.00
2020,08,01,11,12,17.80
2020,08,01,11,13,17.60
2020,08,01,11,14,17.50
2020,08,01,11,15,17.40
2020,08,01,11,16,17.30
2020,08,01,11,17,17.30
2020,08,01,11,18,17.20
2020,08,01,11,19,17.20
2020,08,01,11,20,17.30
2020,08,01,11,21,17.30
2020,08,01,11,22,17.40
2020,08,01,11,23,17.40
2020,08,01,11,24,17.40
2020,08,01,11,25,17.30
2020,08,01,11,26,17.40
2020,08,01,11,27,17.30
2020,08,01,11,28,17.30
2020,08,01,11,29,17.30
2020,08,01,11,30,17.30
2020,08,01,11,31,17.40
2020,08,01,11,32,17.60
2020,08,01,11,33,17.70
2020,08,01,11,34,17.70
2020,08,01,11,35,17.80
2020,08,01,11,36,17.80
2020,08,01,11,37,17.90
2020,08,01,11,38,18.00
2020,08,01,11,39,18.10
2020,08,01,11,40,18.20
2020,08,01,11,41,18.20
2020,08,01,11,42,18.10
2020,08,01,11,43,18.00
2020,08,01,11,44,18.00
2020,08,01,11,45,17.80
2020,08,01,11,46,17.70
2020,08,01,11,47,17.50
2020,08,01,11,48,17.40
2020,08,01,11,49,17.40
2020,08,01,11,50,17.50
2020,08,01,11,51,17.50
2020,08,01,11,52,17.40
2020,08,01,11,53,17.40
2020,08,01,11,54,17.50
2020,08,01,11,55,17.60
2020,08,01,11,56,17.70
2020,08,01,11,57,17.80
2020,08,01,11,58,17.90
2020,08,01,11,59,17.90
2020,08,01,12,00,18.00
2020,08,01,12,01,18.10
2020,08,01,12,02,18.10
2020,08,01,12,03,18.10
2020,08,01,12,04,18.10
2020,08,01,12,05,18.10
2020,08,01,12,06,18.30
2020,08,01,12,07,18.40
2020,08,01,12,08,18.50
2020,08,01,12,09,18.40
2020,08,01,12,10,18.20
2020,08,01,12,11,18.10
2020,08,01,12,12,18.10
2020,08,01,12,13,18.20
2020,08,01,12,14,18.20
2020,08,01,12,15,18.10
2020,08,01,12,16,18.20
2020,08,01,12,17,18.30
2020,08,01,12,18,18.30
2020,08,01,12,19,18.30
2020,08,01,12,20,18.20
2020,08,01,12,21,18.20
2020,08,01,12,22,18.20
2020,08,01,12,23,18.30
2020,08,01,12,24,18.30
2020,08,01,12,25,18.20
2020,08,01,12,26,18.10
2020,08,01,12,27,18.00
2020,08,01,12,28,17.90
2020,08,01,12,29,17.90
2020,08,01,12,30,17.90
2020,08,01,12,31,17.90
2020,08,01,12,32,18.00
2020,08,01,12,33,18.10
2020,08,01,12,34,18.20
2020,08,01,12,35,18.20
2020,08,01,12,36,18.10
2020,08,01,12,37,18.10
2020,08,01,12,38,18.00
2020,08,01,12,39,18.10
2020,08,01,12,40,18.10
2020,08,01,12,41,18.10
2020,08,01,12,42,18.20
2020,08,01,12,43,18.30
2020,08,01,12,44,18.40
2020,08,01,12,45,18.50
2020,08,01,12,46,18.70
2020,08,01,12,47,18.80
2020,08,01,12,48,18.80
2020,08,01,12,49,18.70
2020,08,01,12,50,18.70
2020,08,01,12,51,18.70
2020,08,01,12,52,18.70
2020,08,01,12,53,18.70
2020,08,01,12,54,18.60
2020,08,01,12,55,18.60
2020,08,01,12,56,18.50
2020,08,01,12,57,18.50
2020,08,01,12,58,18.40
2020,08,01,12,59,18.40
2020,08,01,13,00,18.30
2020,08,01,13,01,18.20
2020,08,01,13,02,18.20
2020,08,01,13,03,18.30
2020,08,01,13,04,18.50
2020,08,01,13,05,18.50
2020,08,01,13,06,18.60
2020,08,01,13,07,18.60
2020,08,01,13,08,18.60
2020,08,01,13,09,18.50
2020,08,01,13,10,18.40
2020,08,01,13,11,18.20
2020,08,01,13,12,18.00
2020,08,01,13,13,17.90
2020,08,01,13,14,17.80
2020,08,01,13,15,17.80
2020,08,01,13,16,17.80
2020,08,01,13,17,17.80
2020,08,01,13,18,17.70
2020,08,01,13,19,17.80
2020,08,01,13,20,17.80
2020,08,01,13,21,17.70
2020,08,01,13,22,17.60
2020,08,01,13,23,17.60
2020,08,01,13,24,17.50
2020,08,01,13,25,17.50
2020,08,01,13,26,17.50
2020,08,01,13,27,17.60
2020,08,01,13,28,17.50
2020,08,01,13,29,17.40
2020,08,01,13,30,17.50
2020,08,01,13,31,17.50
2020,08,01,13,32,17.60
2020,08,01,13,33,17.60
2020,08,01,13,34,17.70
2020,08,01,13,35,17.70
2020,08,01,13,36,17.70
2020,08,01,13,37,17.70
2020,08,01,13,38,17.70
2020,08,01,13,39,17.80
2020,08,01,13,40,17.80
2020,08,01,13,41,17.90
2020,08,01,13,42,18.00
2020,08,01,13,43,18.10
2020,08,01,13,44,18.20
2020,08,01,13,45,18.30
2020,08,01,13,46,18.30
2020,08,01,13,47,18.40
2020,08,01,13,48,18.40
2020,08,01,13,49,18.40
2020,08,01,13,50,18.20
2020,08,01,13,51,18.10
2020,08,01,13,52,18.00
2020,08,01,13,53,18.00
2020,08,01,13,54,18.00
2020,08,01,13,55,18.00
2020,08,01,13,56,18.00
2020,08,01,13,57,18.00
2020,08,01,13,58,17.90
2020,08,01,13,59,17.90
2020,08,01,14,00,17.90
2020,08,01,14,01,17.90
2020,08,01,14,02,17.90
2020,08,01,14,03,17.90
2020,08,01,14,04,17.80
2020,08,01,14,05,17.90
2020,08,01,14,06,18.00
2020,08,01,14,07,18.00
2020,08,01,14,08,18.10
2020,08,01,14,09,18.10
2020,08,01,14,10,18.10
2020,08,01,14,11,18.10
2020,08,01,14,12,18.00
2020,08,01,14,13,17.90
2020,08,01,14,14,17.80
2020,08,01,14,15,17.80
2020,08,01,14,16,17.80
2020,08,01,14,17,17.90
2020,08,01,14,18,18.00
2020,08,01,14,19,18.10
2020,08,01,14,20,18.30
2020,08,01,14,21,18.30
2020,08,01,14,22,18.30
2020,08,01,14,23,18.30
2020,08,01,14,24,18.30
2020,08,01,14,25,18.30
2020,08,01,14,26,18.30
2020,08,01,14,27,18.40
2020,08,01,14,28,18.50
2020,08,01,14,29,18.50
2020,08,01,14,30,18.70
2020,08,01,14,31,18.80
2020,08,01,14,32,18.80
2020,08,01,14,33,18.90
2020,08,01,14,34,18.90
2020,08,01,14,35,19.00
2020,08,01,14,36,19.10
2020,08,01,14,37,19.10
2020,08,01,14,38,19.20
2020,08,01,14,39,19.20
2020,08,01,14,40,19.20
2020,08,01,14,41,19.10
2020,08,01,14,42,19.10
2020,08,01,14,43,19.00
2020,08,01,14,44,19.00
2020,08,01,14,45,19.00
2020,08,01,14,46,19.10
2020,08,01,14,47,19.10
2020,08,01,14,48,19.10
2020,08,01,14,49,19.10
2020,08,01,14,50,19.10
2020,08,01,14,51,19.00
2020,08,01,14,52,18.90
2020,08,01,14,53,18.70
2020,08,01,14,54,18.50
2020,08,01,14,55,18.30
2020,08,01,14,56,18.20
2020,08,01,14,57,18.10
2020,08,01,14,58,18.10
2020,08,01,14,59,18.00
2020,08,01,15,00,17.90
2020,08,01,15,01,17.90
2020,08,01,15,02,17.90
2020,08,01,15,03,17.80
2020,08,01,15,04,17.80
2020,08,01,15,05,17.80
2020,08,01,15,06,17.80
2020,08,01,15,07,17.80
2020,08,01,15,08,17.90
2020,08,01,15,09,17.80
2020,08,01,15,10,17.80
2020,08,01,15,11,17.80
2020,08,01,15,12,17.80
2020,08,01,15,13,17.80
2020,08,01,15,14,17.90
2020,08,01,15,15,18.00
2020,08,01,15,16,18.10
2020,08,01,15,17,18.30
2020,08,01,15,18,18.40
2020,08,01,15,19,18.50
2020,08,01,15,20,18.70
2020,08,01,15,21,18.80
2020,08,01,15,22,18.90
2020,08,01,15,23,19.10
2020,08,01,15,24,19.30
2020,08,01,15,25,19.40
2020,08,01,15,26,19.60
2020,08,01,15,27,19.70
2020,08,01,15,28,19.70
2020,08,01,15,29,19.80
2020,08,01,15,30,19.80
2020,08,01,15,31,19.80
2020,08,01,15,32,19.80
2020,08,01,15,33,19.80
2020,08,01,15,34,19.80
2020,08,01,15,35,19.80
2020,08,01,15,36,19.90
2020,08,01,15,37,19.90
2020,08,01,15,38,19.90
2020,08,01,15,39,19.90
2020,08,01,15,40,19.80
2020,08,01,15,41,19.80
2020,08,01,15,42,19.70
2020,08,01,15,43,19.60
2020,08,01,15,44,19.60
2020,08,01,15,45,19.60
2020,08,01,15,46,19.60
2020,08,01,15,47,19.70
2020,08,01,15,48,19.70
2020,08,01,15,49,19.70
2020,08,01,15,50,19.70
2020,08,01,15,51,19.80
2020,08,01,15,52,19.70
2020,08,01,15,53,19.70
2020,08,01,15,54,19.70
2020,08,01,15,55,19.70
2020,08,01,15,56,19.60
2020,08,01,15,57,19.50
2020,08,01,15,58,19.40
2020,08,01,15,59,19.40
2020,08,01,16,00,19.30
2020,08,01,16,01,19.40
2020,08,01,16,02,19.40
2020,08,01,16,03,19.40
2020,08,01,16,04,19.50
2020,08,01,16,05,19.60
2020,08,01,16,06,19.70
2020,08,01,16,07,19.70
2020,08,01,16,08,19.70
2020,08,01,16,09,19.80
2020,08,01,16,10,19.80
2020,08,01,16,11,19.70
2020,08,01,16,12,19.60
2020,08,01,16,13,19.50
2020,08,01,16,14,19.50
2020,08,01,16,15,19.40
2020,08,01,16,16,19.40
2020,08,01,16,17,19.40
2020,08,01,16,18,19.50
2020,08,01,16,19,19.50
2020,08,01,16,20,19.50
2020,08,01,16,21,19.50
2020,08,01,16,22,19.50
2020,08,01,16,23,19.50
2020,08,01,16,24,19.60
2020,08,01,16,25,19.60
2020,08,01,16,26,19.70
2020,08,01,16,27,19.70
2020,08,01,16,28,19.60
2020,08,01,16,29,19.60
2020,08,01,16,30,19.60
2020,08,01,16,31,19.60
2020,08,01,16,32,19.60
2020,08,01,16,33,19.60
2020,08,01,16,34,19.60
2020,08,01,16,35,19.50
2020,08,01,16,36,19.50
2020,08,01,16,37,19.40
2020,08,01,16,38,19.40
2020,08,01,16,39,19.40
2020,08,01,16,40,19.40
2020,08,01,16,41,19.40
2020,08,01,16,42,19.40
2020,08,01,16,43,19.40
2020,08,01,16,44,19.40
2020,08,01,16,45,19.40
2020,08,01,16,46,19.40
2020,08,01,16,47,19.40
2020,08,01,16,48,19.40
2020,08,01,16,49,19.40
2020,08,01,16,50,19.40
2020,08,01,16,51,19.50
2020,08,01,16,52,19.60
2020,08,01,16,53,19.60
2020,08,01,16,54,19.70
2020,08,01,16,55,19.70
2020,08,01,16,56,19.80
2020,08,01,16,57,19.80
2020,08,01,16,58,19.80
2020,08,01,16,59,19.80
2020,08,01,17,00,19.70
2020,08,01,17,01,19.60
2020,08,01,17,02,19.50
2020,08,01,17,03,19.40
2020,08,01,17,04,19.30
2020,08,01,17,05,19.20
2020,08,01,17,06,19.20
2020,08,01,17,07,19.30
2020,08,01,17,08,19.20
2020,08,01,17,09,19.20
2020,08,01,17,10,19.20
2020,08,01,17,11,19.10
2020,08,01,17,12,19.10
2020,08,01,17,13,19.00
2020,08,01,17,14,19.00
2020,08,01,17,15,19.10
2020,08,01,17,16,19.10
2020,08,01,17,17,19.20
2020,08,01,17,18,19.30
2020,08,01,17,19,19.40